This is the latest recevied weather packets stored in our database for station/object RN1M-13. If no packets are shown the sender has not sent any weather packets the latest 10 day(s).
| Time | Temp. | Humidity | Pressure | Rain* | Wind** | Luminosity | Snow |
|---|---|---|---|---|---|---|---|
| 1777780902 | 14.44° C | 100% | 1005.3 hPa | - | - | - | - |
| 1777780002 | 13.89° C | 100% | 1005.3 hPa | - | - | - | - |
| 1777779102 | 12.22° C | 100% | 1005.5 hPa | - | - | - | - |
| 1777778202 | 11.67° C | 100% | 1005.5 hPa | - | - | - | - |
| 1777777302 | 12.22° C | 100% | 1005.5 hPa | - | - | - | - |
| 1777776402 | 12.22° C | 100% | 1005.6 hPa | - | - | - | - |
| 1777775502 | 12.22° C | 100% | 1005.8 hPa | - | - | - | - |
| 1777774602 | 11.67° C | 100% | 1005.8 hPa | - | - | - | - |
| 1777773704 | 11.67° C | 100% | 1005.8 hPa | - | - | - | - |
| 1777772809 | 11.67° C | 100% | 1005.8 hPa | - | - | - | - |
| 1777771909 | 11.67° C | 100% | 1005.7 hPa | - | - | - | - |
| 1777771008 | 11.11° C | 100% | 1005.5 hPa | - | - | - | - |
| 1777770108 | 11.11° C | 100% | 1005.5 hPa | - | - | - | - |
| 1777769208 | 11.11° C | 100% | 1005.4 hPa | - | - | - | - |
| 1777768308 | 10.56° C | 100% | 1005.7 hPa | - | - | - | - |
| 1777767408 | 11.11° C | 100% | 1005.8 hPa | - | - | - | - |
| 1777766508 | 11.11° C | 100% | 1005.8 hPa | - | - | - | - |
| 1777765608 | 11.11° C | 100% | 1005.9 hPa | - | - | - | - |
| 1777764708 | 11.11° C | 100% | 1006.1 hPa | - | - | - | - |
| 1777763808 | 11.11° C | 100% | 1006.3 hPa | - | - | - | - |
| 1777762910 | 11.11° C | 100% | 1006.6 hPa | - | - | - | - |
| 1777762016 | 12.22° C | 100% | 1006.7 hPa | - | - | - | - |
| 1777761116 | 12.78° C | 100% | 1007 hPa | - | - | - | - |
| 1777760216 | 13.33° C | 100% | 1007.1 hPa | - | - | - | - |
| 1777759316 | 14.44° C | 100% | 1007.1 hPa | - | - | - | - |
* Rain since midnight (hover to see other rain measurements)
** Current wind speed in m/s (hover to see current wind gust speed)